Regional Weather Roundup
Issued by NWS

Home | Current Version | Previous Version | Graphics & Text | Print | Product List | Glossary On
Versions: 1 2 3 4 5 6 7 8 9 10 11 12 13 14 15 16 17 18 19 20 21 22 23 24 25 26 27 28 29 30 31 32 33 34 35 36 37 38 39 40 41 42 43 44 45 46 47 48 49 50
000
ASUS45 KBOU 210207
RWRCO

WEATHER ROUNDUP FOR COLORADO
NATIONAL WEATHER SERVICE DENVER/BOULDER CO
800 PM MDT FRI OCT 20 2017

NOTE: "FAIR" INDICATES FEW OR NO CLOUDS BELOW 12000 FEET WITH NO
SIGNIFICANT WEATHER AND/OR OBSTRUCTIONS TO VISIBILITY.

COZ001>005-013-030-031-210300-
...NORTHWEST COLORADO...

CITY           SKY/WX    TMP DP  RH WIND       PRES   REMARKS
CRAIG          CLOUDY    42  34  73 W14G23    29.79R
HAYDEN         LGT RAIN  44  38  79 NW18      29.75R
MEEKER         LGT RAIN  48  40  73 NW18G31   29.74R
RABBIT EARS PA CLOUDY    37  27  65 W14G24    29.84R
STEAMBOAT SPGS CLOUDY    48  34  57 NW17G29   29.73R
WALDEN         NOT AVBL
$$

COZ006>008-011-210300-
...WEST CENTRAL VALLEYS...

CITY           SKY/WX    TMP DP  RH WIND       PRES   REMARKS
GRAND JUNCTION MOCLDY    64  32  30 NW30G37   29.58R
MONTROSE       MOCLDY    64  25  22 S14G20    29.68R
EAGLE          FAIR      58  25  28 W8        29.67F
RIFLE          FAIR      68  24  19 SW14G23   29.59F
DELTA          CLOUDY    70  25  18 W13G24    29.62S
NUCLA          MOCLDY    66  16  14 SW9       29.70S
$$

COZ017>023-064>068-210300-
...SOUTHWEST COLORADO...

CITY           SKY/WX    TMP DP  RH WIND       PRES   REMARKS
DURANGO        FAIR      58  25  28 SW9       29.79R
CORTEZ         MOCLDY    64  25  22 SW14      29.73R
PAGOSA SPRINGS MOCLDY    50  26  38 CALM      29.84F
TELLURIDE      NOT AVBL
WOLF CREEK PAS CLOUDY    36  21  55 S18G35    30.05F
$$

COZ009-010-012-014-032>034-037-058>063-210300-
...CENTRAL COLORADO...

CITY           SKY/WX    TMP DP  RH WIND       PRES   REMARKS
ASPEN          CLOUDY    54  26  34 S8G25     29.73F
BUENA VISTA    FAIR      51  17  25 W7        29.76F
COPPER MTN     FAIR      41  18  38 SW13G25   29.95F
BERTHOUD PASS  FAIR      32  23  69 W13G37    29.96F WCI  22
COTTONWOOD PAS FAIR      54  18  24 SW9       29.86F
GUNNISON       FAIR      56  23  27 S6        29.77F
KREMMLING      FAIR      59  21  23 SW9       29.70F
LEADVILLE      NOT AVBL
MONARCH PASS   MOCLDY    36  18  48 SW35G45   30.07S
SALIDA         FAIR      59  23  24 SW9G17    29.83S
SUNLIGHT       FAIR      37  21  52 SW16G30   29.86F
WILKERSON PASS FAIR      39  14  35 SW8       29.95S
$$

COZ069>075-210300-
...SAN LUIS VALLEY/SANGRE DE CRISTO MOUNTAINS...

CITY           SKY/WX    TMP DP  RH WIND       PRES   REMARKS
ALAMOSA        FAIR      47  26  44 S13       29.82F
DEL NORTE      FAIR      53  25  33 SW9       29.84S
LA VETA PASS   FAIR      45  23  42 S26G41    30.02S
SAGUACHE       FAIR      52  23  32 CALM      29.83S
$$

COZ035-036-038>040-210300-
...NORTHERN COLORADO FRONT RANGE...

CITY           SKY/WX    TMP DP  RH WIND       PRES   REMARKS
DENVER INTL AP FAIR      61  30  31 SW8       29.52R
DMNS CITY PARK   N/A     62  30  30 SW3       29.53R
AURORA         MOCLDY    61  30  31 SW9       29.55R
FRONT RANGE AP PTCLDY    63  28  27 S7        29.53S
ERIE MUNI ARPT FAIR      56  35  45 CALM      29.58R
BOULDER MUN AP FAIR      63  27  25 W7        29.53S
CENTENNIAL     MOCLDY    63  21  20 SW7       29.56S
BROOMFIELD     PTCLDY    64  30  27 W15       29.56R
FORT COLLINS   FAIR      63  36  36 W3        29.52R
LONGMONT       FAIR      57  36  45 CALM      29.54R
$$

COZ041-046-047-076>085-087-088-210300-
...PIKES PEAK/PALMER DIVIDE AND SOUTHERN FOOTHILLS...

CITY           SKY/WX    TMP DP  RH WIND       PRES   REMARKS
COLO. SPRINGS  MOCLDY    67  24  19 SW26G37   29.63F
A. F. ACADEMY  FAIR      62  22  21 SW6       29.64S
SCHRIEVER AFB  FAIR      56  23  28 SW12      29.65R
CHEYENNE MTN   FAIR      62  21  20 SE16G29   29.61F
ELLICOTT         N/A    N/A N/A N/A SW9       29.63S
FALCON         FAIR      59  22  23 SW16      29.68S
FORT CARSON    FAIR      66  23  20 SW14      29.62R
LIMON          FAIR      60  30  32 S15       29.57R
MONUMENT HILL  FAIR      54  27  35 SW6       29.68R
CANON CITY     FAIR      68  27  21 SW12      29.62R
WALSENBURG     FAIR      66  27  22 SW13      29.72R
TRINIDAD       FAIR      58  24  27 SW10      29.71R
$$

COZ042>045-048>051-090-091-210300-
...NORTHEAST COLORADO...

CITY           SKY/WX    TMP DP  RH WIND       PRES   REMARKS
GREELEY ARPT   FAIR      58  36  43 NE6       29.49S
AKRON          FAIR      58  33  39 SE9       29.49F
BURLINGTON     FAIR      58  39  49 S8        29.54F
WRAY           NOT AVBL
YUMA           NOT AVBL
STERLING       FAIR      63  37  39 CALM      29.45S
HOLYOKE        FAIR      59  41  51 SE10      29.48F
FORT MORGAN    FAIR      55  33  42 E10       29.48S
$$

COZ086-089-092>099-210300-
...SOUTHEAST COLORADO...

CITY           SKY/WX    TMP DP  RH WIND       PRES   REMARKS
PUEBLO         FAIR      67  27  22 SW9       29.57R
LA JUNTA       FAIR      65  33  30 SW12      29.56F
LAMAR          FAIR      57  34  41 S10       29.52S
SPRINGFIELD      N/A     65  40  39 S20       29.63F
$$



USA.gov is the U.S. government's official web portal to all federal, state and local government web resources and services.